Air Quality Table

TIMESTAMP NO2 SO2 O3 PM10 PM2.5 CO TEMP HUM AIRPRES WS WD NO BENZENE
2023-02-08 14:00 16.44 µg/m3 1.24 µg/m3 0 µg/m3 9.6 µg/m3 7.55 µg/m3 0.26 mg/m3 11.2 °C 73.11 % 1,020.90 mbar 8.77 m/s 51.67 Deg 18.75 µg/m3 2.57 µg/m3
2023-02-08 13:00 14.83 µg/m3 1.35 µg/m3 0 µg/m3 23.38 µg/m3 10.19 µg/m3 0.28 mg/m3 11.42 °C 69.52 % 1,021.87 mbar 8.99 m/s 53.93 Deg 17.36 µg/m3 2.62 µg/m3
2023-02-08 12:00 18.83 µg/m3 1.26 µg/m3 0 µg/m3 54.72 µg/m3 17.08 µg/m3 0.29 mg/m3 11.41 °C 69.08 % 1,022.74 mbar 8.46 m/s 60.05 Deg 18.92 µg/m3 2.57 µg/m3
2023-02-08 11:00 14.69 µg/m3 1.23 µg/m3 0 µg/m3 19.95 µg/m3 8.7 µg/m3 0.26 mg/m3 11.24 °C 69.12 % 1,023.56 mbar 8.27 m/s 58.97 Deg 19.31 µg/m3 2.47 µg/m3
2023-02-08 10:00 18.05 µg/m3 1.3 µg/m3 0 µg/m3 8.8 µg/m3 6.79 µg/m3 0.29 mg/m3 10.99 °C 71.03 % 1,023.93 mbar 7.64 m/s 59.32 Deg 20.33 µg/m3 2.94 µg/m3
2023-02-08 09:00 16.97 µg/m3 1.32 µg/m3 0 µg/m3 9.93 µg/m3 7.51 µg/m3 0.3 mg/m3 11.25 °C 70.52 % 1,023.77 mbar 6.95 m/s 61.25 Deg 22.58 µg/m3 2.73 µg/m3
2023-02-08 08:00 23.88 µg/m3 1.37 µg/m3 0 µg/m3 12.2 µg/m3 7.21 µg/m3 0.33 mg/m3 11.39 °C 66.41 % 1,023.76 mbar 6.48 m/s 64.47 Deg 25.73 µg/m3 2.89 µg/m3
2023-02-08 07:00 16.4 µg/m3 1.25 µg/m3 0 µg/m3 7.75 µg/m3 5.9 µg/m3 0.29 mg/m3 11.1 °C 66.95 % 1,023.94 mbar 5.95 m/s 65.8 Deg 19.14 µg/m3 2.15 µg/m3
2023-02-08 06:00 2.69 µg/m3 1.06 µg/m3 0 µg/m3 6.78 µg/m3 5.55 µg/m3 0.23 mg/m3 10.72 °C 70.36 % 1,023.61 mbar 6.93 m/s 61.95 Deg 6.72 µg/m3 1.89 µg/m3
2023-02-08 05:00 3.72 µg/m3 1.02 µg/m3 0 µg/m3 7.29 µg/m3 5.77 µg/m3 0.2 mg/m3 10.72 °C 70.64 % 1,024.05 mbar 6.53 m/s 59.15 Deg 0.91 µg/m3 1.89 µg/m3
2023-02-08 04:00 2.71 µg/m3 1.04 µg/m3 0 µg/m3 7.22 µg/m3 5.8 µg/m3 0.19 mg/m3 10.53 °C 71.52 % 1,025.09 mbar 5.82 m/s 58.27 Deg 0.85 µg/m3 1.94 µg/m3
2023-02-08 03:00 3.25 µg/m3 1.09 µg/m3 0 µg/m3 6.75 µg/m3 5.34 µg/m3 0.21 mg/m3 10.46 °C 70.84 % 1,025.55 mbar 6.3 m/s 50.33 Deg 0.37 µg/m3 1.89 µg/m3
2023-02-08 02:00 2.42 µg/m3 1.03 µg/m3 0 µg/m3 7.81 µg/m3 5.88 µg/m3 0.2 mg/m3 10.64 °C 64.44 % 1,026.04 mbar 4.6 m/s 64.12 Deg 0.88 µg/m3 1.89 µg/m3
2023-02-08 01:00 2.75 µg/m3 1.09 µg/m3 0 µg/m3 7.82 µg/m3 6.23 µg/m3 0.18 mg/m3 10.29 °C 64.9 % 1,026.28 mbar 4.78 m/s 65.88 Deg 3.16 µg/m3 2.05 µg/m3
2023-02-08 00:00 4.12 µg/m3 1.11 µg/m3 0 µg/m3 7.75 µg/m3 6.28 µg/m3 0.21 mg/m3 9.84 °C 69.97 % 1,026.70 mbar 4.88 m/s 61.73 Deg 3.98 µg/m3 2.05 µg/m3
2023-02-07 23:00 7.71 µg/m3 1.1 µg/m3 0 µg/m3 8.68 µg/m3 6.86 µg/m3 0.22 mg/m3 10.2 °C 68.14 % 1,026.88 mbar 4.83 m/s 61.75 Deg 5.88 µg/m3 2.05 µg/m3
2023-02-07 22:00 6.38 µg/m3 1.18 µg/m3 0 µg/m3 9.13 µg/m3 7.08 µg/m3 0.2 mg/m3 10.28 °C 65.61 % 1,026.89 mbar 5.31 m/s 61.13 Deg 8 µg/m3 2.1 µg/m3
2023-02-07 21:00 12.35 µg/m3 1.2 µg/m3 0 µg/m3 12.03 µg/m3 7.82 µg/m3 0.22 mg/m3 10.26 °C 64.34 % 1,026.97 mbar 5.33 m/s 59.2 Deg 11.72 µg/m3 2.31 µg/m3
2023-02-07 20:00 14 µg/m3 1.28 µg/m3 0 µg/m3 22.93 µg/m3 10.44 µg/m3 0.25 mg/m3 10.54 °C 62.63 % 1,026.94 mbar 4.98 m/s 58.85 Deg 14.53 µg/m3 2.68 µg/m3
2023-02-07 19:00 17.99 µg/m3 1.38 µg/m3 0 µg/m3 37.92 µg/m3 12.6 µg/m3 0.28 mg/m3 10.6 °C 62.73 % 1,026.53 mbar 5.57 m/s 55.48 Deg 18.24 µg/m3 3.31 µg/m3
2023-02-07 18:00 28.53 µg/m3 1.6 µg/m3 0 µg/m3 40.32 µg/m3 12.42 µg/m3 0.37 mg/m3 10.63 °C 63.02 % 1,026.24 mbar 4.81 m/s 63.42 Deg 29.14 µg/m3 3.62 µg/m3
2023-02-07 17:00 27.87 µg/m3 1.57 µg/m3 0 µg/m3 11.26 µg/m3 8.03 µg/m3 0.39 mg/m3 10.49 °C 65.32 % 1,026.13 mbar 4.82 m/s 60.6 Deg 30.9 µg/m3 3.83 µg/m3
2023-02-07 16:00 27.2 µg/m3 1.81 µg/m3 0 µg/m3 27.13 µg/m3 11.11 µg/m3 0.36 mg/m3 10.57 °C 65.19 % 1,026.04 mbar 4.97 m/s 61.17 Deg 31.74 µg/m3 3.1 µg/m3
2023-02-07 15:00 22.72 µg/m3 1.67 µg/m3 0 µg/m3 28.6 µg/m3 11.42 µg/m3 0.37 mg/m3 10.47 °C 67.04 % 1,026.05 mbar 5.3 m/s 60.92 Deg 34.91 µg/m3 2.78 µg/m3
2023-02-07 14:00 27.11 µg/m3 1.6 µg/m3 0 µg/m3 27.67 µg/m3 10.69 µg/m3 0.34 mg/m3 10.56 °C 67.16 % 1,026.18 mbar 5.42 m/s 56.82 Deg 29.53 µg/m3 2.47 µg/m3
2023-02-07 13:00 19.61 µg/m3 1.67 µg/m3 0 µg/m3 31.03 µg/m3 11.29 µg/m3 0.31 mg/m3 10.49 °C 70.46 % 1,026.78 mbar 5.45 m/s 50.43 Deg 27.77 µg/m3 2.89 µg/m3
2023-02-07 12:00 31.12 µg/m3 1.68 µg/m3 0 µg/m3 24.35 µg/m3 9.91 µg/m3 0.37 mg/m3 10.53 °C 69.31 % 1,027.29 mbar 4.3 m/s 59.7 Deg 32.25 µg/m3 2.94 µg/m3
2023-02-07 11:00 28.97 µg/m3 1.86 µg/m3 0 µg/m3 37.77 µg/m3 12.58 µg/m3 0.35 mg/m3 10.91 °C 63.31 % 1,027.21 mbar 3.84 m/s 65.68 Deg 42.53 µg/m3 3.57 µg/m3
2023-02-07 10:00 46.27 µg/m3 2.01 µg/m3 0 µg/m3 80.29 µg/m3 19.69 µg/m3 0.42 mg/m3 11.05 °C 58.75 % 1,026.89 mbar 2.69 m/s 69.33 Deg 47.99 µg/m3 3.99 µg/m3
2023-02-07 09:00 44.76 µg/m3 2 µg/m3 0 µg/m3 30.54 µg/m3 10.83 µg/m3 0.44 mg/m3 11.08 °C 54.59 % 1,026.52 mbar 1.96 m/s 67.02 Deg 45.46 µg/m3 4.51 µg/m3
2023-02-07 08:00 56 µg/m3 2.3 µg/m3 0 µg/m3 45.35 µg/m3 13.73 µg/m3 0.51 mg/m3 10.92 °C 53.63 % 1,026.27 mbar 1.72 m/s 68.65 Deg 58.93 µg/m3 4.15 µg/m3
2023-02-07 07:00 37.78 µg/m3 1.69 µg/m3 0 µg/m3 31.13 µg/m3 11.21 µg/m3 0.4 mg/m3 10.78 °C 54.1 % 1,025.90 mbar 1.83 m/s 76.25 Deg 35.13 µg/m3 2.41 µg/m3
2023-02-07 06:00 24.79 µg/m3 1.36 µg/m3 0 µg/m3 25.31 µg/m3 8.8 µg/m3 0.26 mg/m3 10.65 °C 56.17 % 1,025.52 mbar 1.69 m/s 63.32 Deg 11.75 µg/m3 1.89 µg/m3
2023-02-07 05:00 0.36 µg/m3 1.32 µg/m3 0 µg/m3 12.33 µg/m3 5.32 µg/m3 0.16 mg/m3 10.59 °C 55.33 % 1,025.39 mbar 1.16 m/s 118.55 Deg 16.72 µg/m3 1.36 µg/m3
2023-02-07 04:00 8.07 µg/m3 1.19 µg/m3 0 µg/m3 10.21 µg/m3 5.03 µg/m3 0.15 mg/m3 10.63 °C 54.47 % 1,025.44 mbar 1.1 m/s 125.97 Deg 1.82 µg/m3 1.57 µg/m3
2023-02-07 03:00 8.48 µg/m3 1.19 µg/m3 0 µg/m3 9.41 µg/m3 4.98 µg/m3 0.18 mg/m3 10.61 °C 53.95 % 1,025.45 mbar 1.69 m/s 66.9 Deg 0.65 µg/m3 1.68 µg/m3
2023-02-07 02:00 9.91 µg/m3 1.23 µg/m3 0 µg/m3 17.12 µg/m3 6.21 µg/m3 0.19 mg/m3 10.56 °C 51.82 % 1,025.50 mbar 1.44 m/s 68.43 Deg 5.32 µg/m3 1.52 µg/m3
2023-02-07 01:00 14.43 µg/m3 1.23 µg/m3 0 µg/m3 12.18 µg/m3 5.69 µg/m3 0.18 mg/m3 10.5 °C 51.82 % 1,025.44 mbar 1.4 m/s 129.22 Deg 3.3 µg/m3 1.99 µg/m3
2023-02-07 00:00 29.14 µg/m3 1.32 µg/m3 0 µg/m3 17.78 µg/m3 7.91 µg/m3 0.23 mg/m3 10.42 °C 52.55 % 1,025.52 mbar 1 m/s 182.72 Deg 5.94 µg/m3 2.68 µg/m3
2023-02-06 23:00 42.81 µg/m3 1.35 µg/m3 0 µg/m3 27.4 µg/m3 12.57 µg/m3 0.29 mg/m3 10.34 °C 52.31 % 1,025.35 mbar 0.77 m/s 182.73 Deg 3.87 µg/m3 3.2 µg/m3
2023-02-06 22:00 49.25 µg/m3 1.48 µg/m3 0 µg/m3 33.74 µg/m3 13.94 µg/m3 0.36 mg/m3 10.29 °C 50.12 % 1,025.02 mbar 0.53 m/s 187.42 Deg 8.91 µg/m3 3.78 µg/m3
2023-02-06 21:00 65.25 µg/m3 1.8 µg/m3 0 µg/m3 49.75 µg/m3 18.92 µg/m3 0.45 mg/m3 9.9 °C 50.23 % 1,025.09 mbar 0.92 m/s 238.6 Deg 16.96 µg/m3 3.25 µg/m3
2023-02-06 20:00 40.76 µg/m3 1.58 µg/m3 0 µg/m3 36.44 µg/m3 12.69 µg/m3 0.38 mg/m3 10.31 °C 47.71 % 1,024.98 mbar 0.69 m/s 163.7 Deg 14.27 µg/m3 4.51 µg/m3
2023-02-06 19:00 38.54 µg/m3 1.98 µg/m3 0 µg/m3 48.94 µg/m3 13.57 µg/m3 0.49 mg/m3 10.01 °C 46.77 % 1,024.68 mbar 1.39 m/s 64.07 Deg 50.58 µg/m3 4.67 µg/m3
2023-02-06 18:00 47.31 µg/m3 2.33 µg/m3 0 µg/m3 80.59 µg/m3 17.87 µg/m3 0.57 mg/m3 9.99 °C 48.04 % 1,024.29 mbar 1.49 m/s 59.82 Deg 59.31 µg/m3 4.15 µg/m3
2023-02-06 17:00 32.83 µg/m3 1.92 µg/m3 0 µg/m3 44.48 µg/m3 11.79 µg/m3 0.39 mg/m3 10.33 °C 47.69 % 1,023.92 mbar 1.97 m/s 48.88 Deg 34.11 µg/m3 3.2 µg/m3
2023-02-06 16:00 27.83 µg/m3 1.71 µg/m3 0 µg/m3 34.49 µg/m3 10.51 µg/m3 0.33 mg/m3 10.28 °C 45.99 % 1,023.93 mbar 2.86 m/s 52.45 Deg 36.46 µg/m3 2.78 µg/m3
2023-02-06 15:00 28.32 µg/m3 2.14 µg/m3 0 µg/m3 34.47 µg/m3 10.62 µg/m3 0.31 mg/m3 10.26 °C 45.5 % 1,024.28 mbar 2.63 m/s 50.07 Deg 34.4 µg/m3 2.47 µg/m3
2023-02-06 14:00 26.62 µg/m3 1.58 µg/m3 0 µg/m3 32.25 µg/m3 9.44 µg/m3 0.3 mg/m3 10.32 °C 46.62 % 1,024.82 mbar 2.91 m/s 42.32 Deg 26.25 µg/m3 2.36 µg/m3
2023-02-06 13:00 20.01 µg/m3 1.67 µg/m3 0 µg/m3 35.2 µg/m3 10.15 µg/m3 0.29 mg/m3 10.36 °C 47 % 1,025.38 mbar 2.87 m/s 42.55 Deg 30.06 µg/m3 2.36 µg/m3
2023-02-06 12:00 16.34 µg/m3 1.49 µg/m3 0 µg/m3 39.8 µg/m3 10.24 µg/m3 0.28 mg/m3 10.35 °C 46.61 % 1,026.15 mbar 3.36 m/s 39.5 Deg 31 µg/m3 2.94 µg/m3
2023-02-06 11:00 35.86 µg/m3 1.73 µg/m3 0 µg/m3 55.74 µg/m3 12.6 µg/m3 0.33 mg/m3 10.58 °C 47.49 % 1,026.18 mbar 2.16 m/s 47.12 Deg 35.72 µg/m3 2.41 µg/m3
2023-02-06 10:00 28.29 µg/m3 1.73 µg/m3 0 µg/m3 51.75 µg/m3 11.67 µg/m3 0.29 mg/m3 10.29 °C 43.6 % 1,025.66 mbar 2.11 m/s 44.05 Deg 34.15 µg/m3 3.31 µg/m3
2023-02-06 09:00 31.22 µg/m3 1.62 µg/m3 0 µg/m3 43.27 µg/m3 10.28 µg/m3 0.38 mg/m3 9.92 °C 44.07 % 1,025.22 mbar 1.88 m/s 28.6 Deg 32.59 µg/m3 3.41 µg/m3
2023-02-06 08:00 44.67 µg/m3 1.74 µg/m3 0 µg/m3 39.24 µg/m3 9.33 µg/m3 0.36 mg/m3 9.3 °C 42.27 % 1,025.04 mbar 1.32 m/s 248.7 Deg 26.28 µg/m3 2.47 µg/m3
2023-02-06 07:00 29.67 µg/m3 1.34 µg/m3 0 µg/m3 29.58 µg/m3 8.4 µg/m3 0.25 mg/m3 9.18 °C 43.99 % 1,024.58 mbar 1.35 m/s 175.57 Deg 16.43 µg/m3 1.63 µg/m3
2023-02-06 06:00 16.66 µg/m3 1.11 µg/m3 0 µg/m3 17.54 µg/m3 5.99 µg/m3 0.18 mg/m3 9.31 °C 45.41 % 1,024.52 mbar 1.52 m/s 331.37 Deg 3.89 µg/m3 1 µg/m3
2023-02-06 05:00 5.22 µg/m3 1.02 µg/m3 0 µg/m3 10.8 µg/m3 4.76 µg/m3 0.11 mg/m3 9.23 °C 44.08 % 1,024.41 mbar 1.2 m/s 231.87 Deg 0.48 µg/m3 1 µg/m3
2023-02-06 04:00 2.92 µg/m3 1.04 µg/m3 0 µg/m3 10.31 µg/m3 4.51 µg/m3 0.1 mg/m3 9.41 °C 42.44 % 1,024.48 mbar 1.5 m/s 317.98 Deg 0.98 µg/m3 1 µg/m3
2023-02-06 03:00 2.09 µg/m3 1.01 µg/m3 0 µg/m3 10.6 µg/m3 4.6 µg/m3 0.12 mg/m3 9.55 °C 43.78 % 1,024.73 mbar 1.58 m/s 311.22 Deg -0.02 µg/m3 1 µg/m3
2023-02-06 02:00 3.93 µg/m3 0.99 µg/m3 0 µg/m3 11.53 µg/m3 5.11 µg/m3 0.12 mg/m3 9.73 °C 44.31 % 1,024.87 mbar 1.66 m/s 308.2 Deg 0.2 µg/m3 1.21 µg/m3
2023-02-06 01:00 6.6 µg/m3 1.09 µg/m3 0 µg/m3 14.25 µg/m3 5.68 µg/m3 0.16 mg/m3 10.01 °C 44.18 % 1,024.80 mbar 1.37 m/s 301.85 Deg 0.76 µg/m3 1.26 µg/m3
2023-02-06 00:00 8.17 µg/m3 0.98 µg/m3 0 µg/m3 14.3 µg/m3 5.97 µg/m3 0.16 mg/m3 10.16 °C 42.18 % 1,024.72 mbar 1.77 m/s 301.2 Deg 0.98 µg/m3 1.36 µg/m3
2023-02-05 23:00 9.47 µg/m3 0.99 µg/m3 0 µg/m3 15.89 µg/m3 5.89 µg/m3 0.17 mg/m3 10.31 °C 40.07 % 1,024.46 mbar 1.8 m/s 320.53 Deg 1.47 µg/m3 1.36 µg/m3
2023-02-05 22:00 8.15 µg/m3 1.07 µg/m3 0 µg/m3 17.33 µg/m3 6.52 µg/m3 0.15 mg/m3 10.71 °C 36.6 % 1,024.23 mbar 2.33 m/s 324.2 Deg 2.65 µg/m3 1.63 µg/m3
2023-02-05 21:00 12.46 µg/m3 1.16 µg/m3 0 µg/m3 20.47 µg/m3 8.48 µg/m3 0.18 mg/m3 11.43 °C 39.75 % 1,024.02 mbar 2.14 m/s 317.98 Deg 3.37 µg/m3 2.15 µg/m3
2023-02-05 20:00 16.04 µg/m3 1.14 µg/m3 0 µg/m3 21.12 µg/m3 8.43 µg/m3 0.2 mg/m3 12.09 °C 39.65 % 1,023.81 mbar 2.38 m/s 313.52 Deg 3.3 µg/m3 2.1 µg/m3
2023-02-05 19:00 19.33 µg/m3 1.24 µg/m3 0 µg/m3 24.11 µg/m3 9.52 µg/m3 0.21 mg/m3 12.57 °C 37.28 % 1,023.39 mbar 2.27 m/s 308.57 Deg 3.82 µg/m3 1.78 µg/m3
2023-02-05 18:00 14.41 µg/m3 1.17 µg/m3 0 µg/m3 21.42 µg/m3 9.06 µg/m3 0.2 mg/m3 13.05 °C 38.79 % 1,022.83 mbar 3.15 m/s 305.93 Deg 2.23 µg/m3 2.1 µg/m3
2023-02-05 17:00 11.01 µg/m3 1.04 µg/m3 0 µg/m3 19.38 µg/m3 7.52 µg/m3 0.23 mg/m3 13.74 °C 37.94 % 1,022.37 mbar 3.43 m/s 306.88 Deg 2.7 µg/m3 1.73 µg/m3
2023-02-05 16:00 10.84 µg/m3 0.99 µg/m3 0 µg/m3 19.38 µg/m3 7.75 µg/m3 0.19 mg/m3 14.25 °C 39.3 % 1,022.05 mbar 3.67 m/s 306.6 Deg 2.16 µg/m3 1.73 µg/m3
2023-02-05 15:00 10.05 µg/m3 0.99 µg/m3 0 µg/m3 23.83 µg/m3 7.84 µg/m3 0.2 mg/m3 14.65 °C 38 % 1,021.83 mbar 3.17 m/s 312.55 Deg 4.4 µg/m3 1.57 µg/m3
2023-02-05 14:00 10.76 µg/m3 0.94 µg/m3 0 µg/m3 17.78 µg/m3 6.55 µg/m3 0.18 mg/m3 14.79 °C 37.67 % 1,021.81 mbar 3.27 m/s 304.48 Deg 3.15 µg/m3 1.78 µg/m3
2023-02-05 13:00 11.26 µg/m3 0.96 µg/m3 0 µg/m3 19.09 µg/m3 5.99 µg/m3 0.19 mg/m3 14.87 °C 40.66 % 1,022.03 mbar 2.98 m/s 312.2 Deg 5.09 µg/m3 2.2 µg/m3
2023-02-05 12:00 11.91 µg/m3 0.97 µg/m3 0 µg/m3 39.52 µg/m3 9.45 µg/m3 0.25 mg/m3 14.64 °C 41.97 % 1,022.40 mbar 2.21 m/s 178.23 Deg 10.6 µg/m3 2.1 µg/m3
2023-02-05 11:00 17.72 µg/m3 0.96 µg/m3 0 µg/m3 63.49 µg/m3 11.5 µg/m3 0.22 mg/m3 14.62 °C 43.01 % 1,022.43 mbar 1.9 m/s 336.23 Deg 8.38 µg/m3 2.26 µg/m3
2023-02-05 10:00 17.1 µg/m3 1.08 µg/m3 0 µg/m3 35.8 µg/m3 8.8 µg/m3 0.25 mg/m3 14.38 °C 53.44 % 1,022.19 mbar 1.65 m/s 179.1 Deg 8.48 µg/m3 2.26 µg/m3
2023-02-05 09:00 17.09 µg/m3 1.07 µg/m3 0 µg/m3 15.95 µg/m3 9.05 µg/m3 0.31 mg/m3 13.88 °C 72.97 % 1,021.64 mbar 1.9 m/s 31.6 Deg 10.67 µg/m3 2.31 µg/m3
2023-02-05 08:00 15.83 µg/m3 1.01 µg/m3 0 µg/m3 14.65 µg/m3 9.1 µg/m3 0.31 mg/m3 13.97 °C 73.48 % 1,021.22 mbar 1.73 m/s 31.55 Deg 5.59 µg/m3 2.05 µg/m3
2023-02-05 07:00 15.25 µg/m3 1.03 µg/m3 0 µg/m3 15.69 µg/m3 10.56 µg/m3 0.25 mg/m3 13.95 °C 73.66 % 1,020.75 mbar 1.88 m/s 37.95 Deg 8.83 µg/m3 3.83 µg/m3
2023-02-05 06:00 47.74 µg/m3 1.57 µg/m3 0 µg/m3 20.94 µg/m3 14.01 µg/m3 0.5 mg/m3 12.27 °C 79.87 % 1,020.22 mbar 0.61 m/s 186.47 Deg 23.73 µg/m3 4.88 µg/m3
2023-02-05 05:00 42.16 µg/m3 1.35 µg/m3 0 µg/m3 21.72 µg/m3 14.56 µg/m3 0.42 mg/m3 11.59 °C 81.37 % 1,019.91 mbar 0.66 m/s 240.52 Deg 14.43 µg/m3 3.83 µg/m3
2023-02-05 04:00 44.01 µg/m3 1.26 µg/m3 0 µg/m3 22.67 µg/m3 15.18 µg/m3 0.41 mg/m3 12.04 °C 78.29 % 1,019.75 mbar 0.59 m/s 241.47 Deg 7.81 µg/m3 2.99 µg/m3
2023-02-05 03:00 36.44 µg/m3 0.98 µg/m3 0 µg/m3 20.92 µg/m3 14.03 µg/m3 0.34 mg/m3 12.19 °C 76.06 % 1,019.97 mbar 0.24 m/s 228.17 Deg 3.22 µg/m3 3.1 µg/m3
2023-02-05 02:00 38.47 µg/m3 1.1 µg/m3 0 µg/m3 18.28 µg/m3 12.23 µg/m3 0.38 mg/m3 12.85 °C 72.22 % 1,020.11 mbar 0.79 m/s 229.63 Deg 4.63 µg/m3 2.31 µg/m3
2023-02-05 01:00 24.14 µg/m3 1.07 µg/m3 0 µg/m3 29.63 µg/m3 11.97 µg/m3 0.34 mg/m3 13.55 °C 69.48 % 1,020.13 mbar 0.97 m/s 256.2 Deg 0.87 µg/m3 2.05 µg/m3
2023-02-05 00:00 17.19 µg/m3 1.15 µg/m3 0 µg/m3 24.51 µg/m3 12.1 µg/m3 0.28 mg/m3 14.11 °C 68.61 % 1,020.39 mbar 1.68 m/s 262.17 Deg 1.3 µg/m3 1.78 µg/m3
2023-02-04 23:00 20.98 µg/m3 0.96 µg/m3 0 µg/m3 26.13 µg/m3 11.34 µg/m3 0.32 mg/m3 14.1 °C 68.07 % 1,020.43 mbar 1.53 m/s 259.08 Deg 2 µg/m3 1.94 µg/m3
2023-02-04 22:00 20.98 µg/m3 1.18 µg/m3 0 µg/m3 27.64 µg/m3 12.7 µg/m3 0.31 mg/m3 13.89 °C 67.62 % 1,020.15 mbar 1.69 m/s 266.98 Deg 2.19 µg/m3 2.15 µg/m3
2023-02-04 21:00 21.14 µg/m3 1.86 µg/m3 0 µg/m3 36.92 µg/m3 19.19 µg/m3 0.33 mg/m3 14.02 °C 68.65 % 1,019.61 mbar 1.78 m/s 252.5 Deg 2.76 µg/m3 2.47 µg/m3
2023-02-04 20:00 24.29 µg/m3 1.14 µg/m3 0 µg/m3 30.94 µg/m3 14.03 µg/m3 0.35 mg/m3 13.92 °C 68.63 % 1,019.52 mbar 1.7 m/s 253.4 Deg 2.63 µg/m3 2.31 µg/m3
2023-02-04 19:00 29.26 µg/m3 1.08 µg/m3 0 µg/m3 29.13 µg/m3 12.22 µg/m3 0.37 mg/m3 13.86 °C 68.23 % 1,019.49 mbar 1.9 m/s 253.5 Deg 3.98 µg/m3 2.31 µg/m3
2023-02-04 18:00 25.73 µg/m3 1.45 µg/m3 0 µg/m3 29.66 µg/m3 14.28 µg/m3 0.32 mg/m3 14.27 °C 67.41 % 1,019.51 mbar 2.53 m/s 265.75 Deg 4.77 µg/m3 1.89 µg/m3
2023-02-04 17:00 22.34 µg/m3 1.31 µg/m3 0 µg/m3 27.36 µg/m3 12.62 µg/m3 0.27 mg/m3 14.78 °C 66.46 % 1,019.66 mbar 2.94 m/s 262.07 Deg 3.34 µg/m3 1.84 µg/m3
2023-02-04 16:00 19.25 µg/m3 1.25 µg/m3 0 µg/m3 22.86 µg/m3 9.88 µg/m3 0.26 mg/m3 15.06 °C 65.33 % 1,019.56 mbar 3.52 m/s 260.72 Deg 3.63 µg/m3 1.99 µg/m3
2023-02-04 15:00 17.44 µg/m3 1.17 µg/m3 0 µg/m3 22.38 µg/m3 8.96 µg/m3 0.27 mg/m3 15.44 °C 63.53 % 1,019.45 mbar 3.4 m/s 265.93 Deg 4.83 µg/m3 1.94 µg/m3
2023-02-04 14:00 17.31 µg/m3 1.22 µg/m3 0 µg/m3 31.95 µg/m3 10.27 µg/m3 0.27 mg/m3 15.51 °C 63.27 % 1,020.22 mbar 3.4 m/s 266.02 Deg 4.62 µg/m3 1.89 µg/m3
2023-02-04 13:00 19.32 µg/m3 1.16 µg/m3 0 µg/m3 40.96 µg/m3 10.82 µg/m3 0.26 mg/m3 15.58 °C 63.27 % 1,020.91 mbar 3.54 m/s 256.18 Deg 5.59 µg/m3 2.15 µg/m3
2023-02-04 12:00 22.03 µg/m3 1.17 µg/m3 0 µg/m3 30.13 µg/m3 8.83 µg/m3 0.28 mg/m3 15.54 °C 63.25 % 1,021.94 mbar 3.24 m/s 261.12 Deg 6.1 µg/m3 2.36 µg/m3
2023-02-04 11:00 22.03 µg/m3 1.04 µg/m3 0 µg/m3 34.3 µg/m3 8.5 µg/m3 0.29 mg/m3 15.26 °C 64.11 % 1,022.76 mbar 2.81 m/s 254.12 Deg 5.76 µg/m3 3.1 µg/m3
2023-02-04 10:00 34.25 µg/m3 1.18 µg/m3 0 µg/m3 37.22 µg/m3 9.95 µg/m3 0.35 mg/m3 14.78 °C 66.45 % 1,023.02 mbar 1.89 m/s 251.47 Deg 10.09 µg/m3 10.13 µg/m3
2023-02-04 09:00 83.49 µg/m3 3.93 µg/m3 0 µg/m3 84.82 µg/m3 31.22 µg/m3 0.89 mg/m3 12.77 °C 72.57 % 1,023.25 mbar 0.56 m/s 234.72 Deg 106.23 µg/m3 13.86 µg/m3
2023-02-04 08:00 75.66 µg/m3 4.1 µg/m3 0 µg/m3 43.03 µg/m3 28.68 µg/m3 1.11 mg/m3 9.94 °C 80.26 % 1,023.42 mbar 0.74 m/s 242.47 Deg 129.48 µg/m3 10.87 µg/m3
2023-02-04 07:00 65.54 µg/m3 3.56 µg/m3 0 µg/m3 32.32 µg/m3 21.64 µg/m3 0.77 mg/m3 9.48 °C 80.7 % 1,023.68 mbar 0.89 m/s 246.2 Deg 94.09 µg/m3 7.09 µg/m3
2023-02-04 06:00 53.87 µg/m3 2.12 µg/m3 0 µg/m3 30.41 µg/m3 20.5 µg/m3 0.59 mg/m3 9.49 °C 80.56 % 1,023.92 mbar 0.74 m/s 245.3 Deg 41.56 µg/m3 4.51 µg/m3
2023-02-04 05:00 34.21 µg/m3 1.26 µg/m3 0 µg/m3 29.22 µg/m3 20.72 µg/m3 0.31 mg/m3 9.57 °C 80.21 % 1,024.18 mbar 0.79 m/s 243.35 Deg 7.32 µg/m3 3.25 µg/m3
2023-02-04 04:00 30.64 µg/m3 1.17 µg/m3 0 µg/m3 26.65 µg/m3 18.93 µg/m3 0.41 mg/m3 9.56 °C 79.73 % 1,024.68 mbar 0.89 m/s 239.85 Deg 2.83 µg/m3 3.1 µg/m3
2023-02-04 03:00 24.45 µg/m3 1.07 µg/m3 0 µg/m3 23.16 µg/m3 16.63 µg/m3 0.3 mg/m3 9.78 °C 77.82 % 1,025.21 mbar 1.09 m/s 234.53 Deg 1.14 µg/m3 3.94 µg/m3
2023-02-04 02:00 46.44 µg/m3 1.24 µg/m3 0 µg/m3 30.17 µg/m3 20.67 µg/m3 0.43 mg/m3 10.1 °C 78.32 % 1,025.63 mbar 0.97 m/s 236.7 Deg 6.97 µg/m3 5.88 µg/m3
2023-02-04 01:00 52.05 µg/m3 1.48 µg/m3 0 µg/m3 37.55 µg/m3 25.47 µg/m3 0.59 mg/m3 10.45 °C 78.06 % 1,026.04 mbar 0.92 m/s 233.7 Deg 9.83 µg/m3 7.3 µg/m3
2023-02-04 00:00 60.14 µg/m3 1.81 µg/m3 0 µg/m3 47.13 µg/m3 31.85 µg/m3 0.71 mg/m3 10.69 °C 78.23 % 1,026.53 mbar 0.97 m/s 230.97 Deg 21.12 µg/m3 11.28 µg/m3
2023-02-03 23:00 67.93 µg/m3 2.86 µg/m3 0 µg/m3 60.42 µg/m3 40.41 µg/m3 1 mg/m3 10.98 °C 78.32 % 1,026.81 mbar 0.82 m/s 235.55 Deg 56.11 µg/m3 15.22 µg/m3
2023-02-03 22:00 71.35 µg/m3 3.57 µg/m3 0 µg/m3 66.28 µg/m3 44.2 µg/m3 1.14 mg/m3 11.44 °C 77.2 % 1,026.89 mbar 0.84 m/s 238.82 Deg 70.16 µg/m3 17.58 µg/m3
2023-02-03 21:00 83.98 µg/m3 4.29 µg/m3 0 µg/m3 73.72 µg/m3 49.15 µg/m3 1.4 mg/m3 12.3 °C 74.25 % 1,026.92 mbar 0.76 m/s 233.27 Deg 109.6 µg/m3 18.06 µg/m3
2023-02-03 20:00 96.54 µg/m3 3.94 µg/m3 0 µg/m3 103.61 µg/m3 42.53 µg/m3 1.44 mg/m3 13.39 °C 69.9 % 1,026.80 mbar 0.6 m/s 241.48 Deg 116.43 µg/m3 9.66 µg/m3
2023-02-03 19:00 75.63 µg/m3 2.61 µg/m3 0 µg/m3 153.19 µg/m3 32.35 µg/m3 0.62 mg/m3 14.18 °C 65.87 % 1,026.95 mbar 0.85 m/s 53.33 Deg 51.23 µg/m3 5.09 µg/m3
2023-02-03 18:00 57.57 µg/m3 1.88 µg/m3 0 µg/m3 113.2 µg/m3 26.21 µg/m3 0.53 mg/m3 14.54 °C 63.14 % 1,026.76 mbar 1.64 m/s 59.7 Deg 52.67 µg/m3 4.04 µg/m3
2023-02-03 17:00 31.11 µg/m3 1.84 µg/m3 0 µg/m3 58.96 µg/m3 15.66 µg/m3 0.38 mg/m3 14.99 °C 60.2 % 1,026.41 mbar 2.7 m/s 55.92 Deg 32.36 µg/m3 3.15 µg/m3
2023-02-03 16:00 28.7 µg/m3 1.57 µg/m3 0 µg/m3 41.81 µg/m3 11.68 µg/m3 0.36 mg/m3 15.08 °C 58.11 % 1,026.15 mbar 3.35 m/s 52.67 Deg 33.41 µg/m3 11.81 µg/m3
2023-02-03 15:00 27.37 µg/m3 1.45 µg/m3 0 µg/m3 37.08 µg/m3 11.22 µg/m3 0.34 mg/m3 15.16 °C 59.75 % 1,025.91 mbar 4.01 m/s 52.47 Deg 25.19 µg/m3 3.1 µg/m3
2023-02-03 14:00 32.05 µg/m3 1.63 µg/m3 0 µg/m3 42.37 µg/m3 13.93 µg/m3 0.35 mg/m3 15.27 °C 59.32 % 1,026.04 mbar 3.56 m/s 50.85 Deg 34.92 µg/m3 2.83 µg/m3
2023-02-03 13:00 41 µg/m3 1.48 µg/m3 0 µg/m3 60.28 µg/m3 17.25 µg/m3 0.36 mg/m3 15.11 °C 63.84 % 1,026.52 mbar 3.08 m/s 55.97 Deg 34.29 µg/m3 3.15 µg/m3
2023-02-03 12:00 29.75 µg/m3 1.37 µg/m3 0 µg/m3 61.81 µg/m3 16.43 µg/m3 0.38 mg/m3 15.35 °C 64.94 % 1,027.17 mbar 3.22 m/s 54.52 Deg 30.24 µg/m3 3.99 µg/m3
2023-02-03 11:00 44.87 µg/m3 1.71 µg/m3 0 µg/m3 91.31 µg/m3 20.9 µg/m3 0.38 mg/m3 15.06 °C 64.07 % 1,027.39 mbar 2.35 m/s 54.92 Deg 46.27 µg/m3 14.59 µg/m3
2023-02-03 10:00 91.44 µg/m3 5.17 µg/m3 0 µg/m3 169.77 µg/m3 53.05 µg/m3 1.34 mg/m3 13.74 °C 71.56 % 1,027.03 mbar 0.45 m/s 199.39 Deg 192.32 µg/m3 20.1 µg/m3
2023-02-03 09:00 90.13 µg/m3 5.85 µg/m3 0 µg/m3 65.25 µg/m3 43.5 µg/m3 1.42 mg/m3 11.58 °C 76.32 % 1,026.40 mbar 0.51 m/s 235.84 Deg 211.05 µg/m3 17.69 µg/m3
2023-02-03 08:00 83.81 µg/m3 5.48 µg/m3 0 µg/m3 45.15 µg/m3 30.1 µg/m3 1.42 mg/m3 10.42 °C 80.7 % 1,025.75 mbar 0.6 m/s 238.08 Deg 205.4 µg/m3 16.38 µg/m3
2023-02-03 07:00 69.45 µg/m3 4.72 µg/m3 0 µg/m3 42.48 µg/m3 28.32 µg/m3 1.22 mg/m3 9.88 °C 82.41 % 1,025.26 mbar 0.53 m/s 240.82 Deg 175.08 µg/m3 6.25 µg/m3
2023-02-03 06:00 49.35 µg/m3 1.81 µg/m3 0 µg/m3 25.61 µg/m3 17.08 µg/m3 0.51 mg/m3 9.91 °C 82.78 % 1,025.01 mbar 0.76 m/s 236.55 Deg 44.96 µg/m3 4.04 µg/m3
2023-02-03 05:00 34.67 µg/m3 1.2 µg/m3 0 µg/m3 17.72 µg/m3 11.83 µg/m3 0.28 mg/m3 10.31 °C 82.3 % 1,024.65 mbar 0.67 m/s 248.22 Deg 12.51 µg/m3 3.57 µg/m3
2023-02-03 04:00 26.91 µg/m3 1.1 µg/m3 0 µg/m3 18.17 µg/m3 12.17 µg/m3 0.3 mg/m3 10.85 °C 81.6 % 1,024.85 mbar 0.64 m/s 244.18 Deg 5.94 µg/m3 3.2 µg/m3
2023-02-03 03:00 24.62 µg/m3 1.02 µg/m3 0 µg/m3 20.18 µg/m3 13.63 µg/m3 0.34 mg/m3 11.19 °C 80.54 % 1,024.79 mbar 0.75 m/s 237.9 Deg 1.03 µg/m3 3.78 µg/m3
2023-02-03 02:00 39.2 µg/m3 1.3 µg/m3 0 µg/m3 26.38 µg/m3 17.59 µg/m3 0.43 mg/m3 11.06 °C 81.54 % 1,024.91 mbar 0.75 m/s 244.37 Deg 15.01 µg/m3 3.94 µg/m3
2023-02-03 01:00 38.95 µg/m3 1.07 µg/m3 0 µg/m3 26.78 µg/m3 17.86 µg/m3 0.46 mg/m3 11.36 °C 80.55 % 1,025.14 mbar 0.93 m/s 234.88 Deg 5.83 µg/m3 4.25 µg/m3
2023-02-03 00:00 44.94 µg/m3 1.15 µg/m3 0 µg/m3 28.02 µg/m3 18.69 µg/m3 0.46 mg/m3 11.7 °C 79.07 % 1,025.18 mbar 1.03 m/s 240.83 Deg 6.26 µg/m3 5.98 µg/m3
2023-02-02 23:00 54.88 µg/m3 1.67 µg/m3 0 µg/m3 43.96 µg/m3 29.31 µg/m3 0.66 mg/m3 11.73 °C 79.75 % 1,025.01 mbar 0.86 m/s 228.03 Deg 19.68 µg/m3 9.13 µg/m3
2023-02-02 22:00 67.38 µg/m3 2.31 µg/m3 0 µg/m3 49.92 µg/m3 33.28 µg/m3 0.83 mg/m3 12.18 °C 79.12 % 1,024.70 mbar 0.74 m/s 237.37 Deg 44 µg/m3 13.75 µg/m3
2023-02-02 21:00 78.18 µg/m3 4.1 µg/m3 0 µg/m3 52.44 µg/m3 34.96 µg/m3 1.14 mg/m3 12.76 °C 77.19 % 1,024.51 mbar 0.69 m/s 240.35 Deg 80.99 µg/m3 16.95 µg/m3
2023-02-02 20:00 81.05 µg/m3 4.34 µg/m3 0 µg/m3 52.19 µg/m3 34.79 µg/m3 1.41 mg/m3 12.93 °C 79.71 % 1,024.21 mbar 0.71 m/s 240.95 Deg 137.82 µg/m3 16.9 µg/m3
2023-02-02 19:00 81.23 µg/m3 3.29 µg/m3 0 µg/m3 30.31 µg/m3 20.3 µg/m3 1.04 mg/m3 13.8 °C 75.74 % 1,023.89 mbar 0.59 m/s 236.8 Deg 86.17 µg/m3 7.82 µg/m3
2023-02-02 18:00 71.63 µg/m3 2.09 µg/m3 0 µg/m3 19.7 µg/m3 12.18 µg/m3 0.66 mg/m3 14.15 °C 72.15 % 1,023.39 mbar 0.75 m/s 240.97 Deg 29.97 µg/m3 3.94 µg/m3
2023-02-02 17:00 53.63 µg/m3 1.5 µg/m3 0 µg/m3 17.96 µg/m3 9.58 µg/m3 0.47 mg/m3 14.4 °C 71.92 % 1,022.86 mbar 1.3 m/s 276.48 Deg 17.78 µg/m3 3.46 µg/m3
2023-02-02 16:00 45.08 µg/m3 1.34 µg/m3 0 µg/m3 12.48 µg/m3 8.58 µg/m3 0.4 mg/m3 13.54 °C 81.29 % 1,022.82 mbar 0.81 m/s 306 Deg 18.3 µg/m3 2.68 µg/m3
2023-02-02 15:00 42.02 µg/m3 1.6 µg/m3 0 µg/m3 11.95 µg/m3 8.72 µg/m3 0.33 mg/m3 13.14 °C 83.07 % 1,022.96 mbar 1.5 m/s 221.53 Deg 10.5 µg/m3 2.47 µg/m3
2023-02-02 14:00 37.81 µg/m3 1.24 µg/m3 0 µg/m3 34.48 µg/m3 10.94 µg/m3 0.3 mg/m3 14.45 °C 70.9 % 1,023.17 mbar 2.2 m/s 236.87 Deg 12.75 µg/m3 2.68 µg/m3
2023-02-02 13:00 32.28 µg/m3 1.17 µg/m3 0 µg/m3 29.48 µg/m3 9.64 µg/m3 0.28 mg/m3 14.45 °C 68.89 % 1,023.73 mbar 2.52 m/s 251.78 Deg 9.48 µg/m3 2.62 µg/m3
2023-02-02 12:00 37.48 µg/m3 1.37 µg/m3 0 µg/m3 17.28 µg/m3 9.69 µg/m3 0.31 mg/m3 14.17 °C 76.13 % 1,024.48 mbar 1.91 m/s 276.32 Deg 12.83 µg/m3 3.57 µg/m3
2023-02-02 11:00 63.42 µg/m3 2 µg/m3 0 µg/m3 18.04 µg/m3 11.16 µg/m3 0.4 mg/m3 13.57 °C 78.01 % 1,024.62 mbar 1.19 m/s 237.87 Deg 35.88 µg/m3 4.67 µg/m3
2023-02-02 10:00 68.44 µg/m3 2 µg/m3 0 µg/m3 17.7 µg/m3 11.91 µg/m3 0.56 mg/m3 13.1 °C 82.83 % 1,024.26 mbar 0.97 m/s 300.12 Deg 41.98 µg/m3 8.4 µg/m3
2023-02-02 09:00 92.2 µg/m3 3.56 µg/m3 0 µg/m3 21.08 µg/m3 14.07 µg/m3 0.94 mg/m3 13.2 °C 77.82 % 1,023.80 mbar 0.5 m/s 285.6 Deg 110.08 µg/m3 16.27 µg/m3
2023-02-02 08:00 99.7 µg/m3 4.04 µg/m3 0 µg/m3 21.8 µg/m3 14.76 µg/m3 1.33 mg/m3 12.74 °C 80.74 % 1,023.39 mbar 0.15 m/s 189.77 Deg 148.48 µg/m3 11.97 µg/m3
2023-02-02 07:00 75.87 µg/m3 3.94 µg/m3 0 µg/m3 23.26 µg/m3 15.67 µg/m3 0.96 mg/m3 12.54 °C 78.41 % 1,023.23 mbar 0.52 m/s 209.78 Deg 135.47 µg/m3 6.35 µg/m3
2023-02-02 06:00 62.34 µg/m3 1.92 µg/m3 0 µg/m3 17.38 µg/m3 11.7 µg/m3 0.56 mg/m3 12.49 °C 74.3 % 1,023.01 mbar 0.27 m/s 268.7 Deg 53.67 µg/m3 2.41 µg/m3
2023-02-02 05:00 26.74 µg/m3 1.21 µg/m3 0 µg/m3 14.5 µg/m3 10.06 µg/m3 0.23 mg/m3 12.22 °C 73.7 % 1,022.95 mbar 1.07 m/s 229.18 Deg 6.15 µg/m3 3.52 µg/m3
2023-02-02 04:00 28.03 µg/m3 1.16 µg/m3 0 µg/m3 15.61 µg/m3 11.13 µg/m3 0.29 mg/m3 11.61 °C 74.29 % 1,023.41 mbar 1.03 m/s 231.33 Deg 5.65 µg/m3 4.2 µg/m3
2023-02-02 03:00 41.66 µg/m3 1.27 µg/m3 0 µg/m3 17.49 µg/m3 12.05 µg/m3 0.39 mg/m3 11.36 °C 72.94 % 1,024.06 mbar 0.75 m/s 241.52 Deg 15.62 µg/m3 4.62 µg/m3
2023-02-02 02:00 38.68 µg/m3 1.25 µg/m3 0 µg/m3 18.28 µg/m3 12.53 µg/m3 0.41 mg/m3 11 °C 72.17 % 1,024.48 mbar 1.02 m/s 237.12 Deg 5.39 µg/m3 4.99 µg/m3
2023-02-02 01:00 47.17 µg/m3 1.56 µg/m3 0 µg/m3 24.12 µg/m3 16.3 µg/m3 0.58 mg/m3 10.48 °C 72.09 % 1,024.94 mbar 1.05 m/s 236.83 Deg 5.26 µg/m3 6.82 µg/m3
2023-02-02 00:00 57.02 µg/m3 1.72 µg/m3 0 µg/m3 33.99 µg/m3 22.75 µg/m3 0.68 mg/m3 10.46 °C 71.15 % 1,025.37 mbar 1.01 m/s 241.3 Deg 16.59 µg/m3 10.03 µg/m3
2023-02-01 23:00 69.62 µg/m3 2.36 µg/m3 0 µg/m3 46 µg/m3 30.67 µg/m3 0.86 mg/m3 10.58 °C 69.06 % 1,025.35 mbar 0.77 m/s 238.67 Deg 39.3 µg/m3 10.08 µg/m3
2023-02-01 22:00 77.12 µg/m3 2.89 µg/m3 0 µg/m3 74.04 µg/m3 33.6 µg/m3 0.92 mg/m3 10.86 °C 66.64 % 1,025.30 mbar 0.71 m/s 235.25 Deg 53.86 µg/m3 11.7 µg/m3
2023-02-01 21:00 86.49 µg/m3 3.63 µg/m3 0 µg/m3 111.29 µg/m3 37.38 µg/m3 1.15 mg/m3 11.26 °C 65.14 % 1,025.50 mbar 0.72 m/s 240 Deg 107.95 µg/m3 13.02 µg/m3
2023-02-01 20:00 95.61 µg/m3 3.39 µg/m3 0 µg/m3 144.43 µg/m3 40.13 µg/m3 1.18 mg/m3 12.03 °C 60.51 % 1,025.63 mbar 0.68 m/s 237.62 Deg 104.07 µg/m3 7.61 µg/m3
2023-02-01 19:00 81.45 µg/m3 1.76 µg/m3 0 µg/m3 117.28 µg/m3 26.63 µg/m3 0.6 mg/m3 12.6 °C 57.11 % 1,025.56 mbar 0.87 m/s 225.65 Deg 17.44 µg/m3 5.09 µg/m3
2023-02-01 18:00 63.92 µg/m3 1.48 µg/m3 0 µg/m3 66.39 µg/m3 17.37 µg/m3 0.5 mg/m3 13.46 °C 54.22 % 1,025.15 mbar 1.51 m/s 238.65 Deg 14.02 µg/m3 3.25 µg/m3
2023-02-01 17:00 41.43 µg/m3 1.34 µg/m3 0 µg/m3 35.75 µg/m3 12.08 µg/m3 0.36 mg/m3 14.41 °C 51.07 % 1,024.78 mbar 1.83 m/s 245.33 Deg 12.23 µg/m3 3.04 µg/m3
2023-02-01 16:00 37.4 µg/m3 1.28 µg/m3 0 µg/m3 45.48 µg/m3 13.12 µg/m3 0.3 mg/m3 14.78 °C 49.43 % 1,024.79 mbar 1.16 m/s 241.47 Deg 17.06 µg/m3 3.04 µg/m3

It is to be noted that the data is provisional and subject to quality assurance procedures. For validated data kindly refer your request to contact.air@era.org.mt